Location: Ahstedt
(52.2048°N, 10.1060°E)
Time: 23:55:27
(UTC+00:00)

Cosmos 540 Rocket - Pass Details

Date: 12 April 2026
Orbit: 734 x 748 km, 74.1° (Epoch: 15 May)

Event Time Altitude Azimuth Distance (km) Brightness Sun altitude
Rises 03:23:58 0° 183° (S) 3,168 6.4 -10.1°
Reaches altitude 10° 03:26:23 10° 177° (S) 2,251 5.7 -9.8°
Maximum altitude 03:31:13 45° 106° (ESE) 1,016 4.6 -9.1°
Drops below altitude 10° 03:36:06 10° 35° (NE) 2,274 7.0 -8.5°
Sets 03:38:33 0° 29° (NNE) 3,204 7.7 -8.1°
